CW5425 Weather Reports


time (UTC)temp
C
wind
direction
speed
KPH
gust
KPH
rain 1hr
cm
rain 24hr
cm
rain mn
cm
humidity
%
barometer
mb
20260506122624 19 144 1.6 14.5 0.00 0.00 0.00 76 1009.2
20260506121142 18 137 0.0 11.3 0.00 0.00 0.00 77 1009.2
20260506115631 18 193 0.0 3.2 0.00 0.00 0.00 78 1009.5
20260506114133 18 178 0.0 6.4 0.00 0.00 0.00 80 1009.6
20260506112626 18 134 1.6 12.9 0.00 0.00 0.00 80 1009.5
20260506111123 17 139 0.0 14.5 0.00 0.00 0.00 81 1009.4
20260506105624 17 190 1.6 8.0 0.00 0.00 0.00 81 1009.4
20260506104143 17 196 1.6 12.9 0.00 0.00 0.00 81 1009.4
20260506102633 17 261 0.0 6.4 0.00 0.00 0.00 80 1009.3
20260506101130 17 134 0.0 6.4 0.00 0.00 0.00 80 1009.1
20260506095627 17 109 0.0 6.4 0.00 0.00 0.00 79 1009.1
20260506094125 17 156 0.0 8.0 0.00 0.00 0.00 78 1009.2
20260506092703 18 175 0.0 12.9 0.00 0.00 0.00 78 1009.2
20260506091141 18 132 1.6 4.8 0.00 0.00 0.00 78 1009.2
20260506085631 18 137 0.0 11.3 0.00 0.00 0.00 77 1009.3
20260506084130 18 216 1.6 8.0 0.00 0.00 0.00 77 1009.4
20260506082641 18 215 1.6 8.0 0.00 0.00 0.00 76 1009.3
20260506081159 18 199 1.6 8.0 0.00 0.00 0.00 76 1009.4
20260506072625 18 157 0.0 8.0 0.00 0.00 0.00 74 1009.4
20260506071141 18 182 1.6 6.4 0.00 0.00 0.00 73 1009.6
20260506061144 20 244 1.6 6.4 0.00 0.00 0.00 69 1009.7
20260506051137 20 196 0.0 6.4 0.00 0.00 0.00 67 1010.1
20260506044133 20 173 0.0 9.7 0.00 0.00 0.00 66 1010.3
20260506042642 20 232 0.0 6.4 0.00 0.00 0.00 65 1010.2
20260506041139 20 254 1.6 11.3 0.00 0.00 0.00 64 1010.1
20260506035650 20 181 1.6 6.4 0.00 0.00 0.00 63 1010.2
20260506034138 21 193 0.0 4.8 0.00 0.00 0.00 62 1010.2
20260506032631 21 200 0.0 6.4 0.00 0.00 0.00 61 1010.2
20260506031127 21 236 0.0 24.1 0.00 0.00 0.00 61 1010.0
20260506025643 21 186 3.2 8.0 0.00 0.00 0.00 60 1010.0
20260506024141 21 194 3.2 11.3 0.00 0.00 0.00 59 1010.1
20260506022649 22 211 0.0 6.4 0.00 0.00 0.00 58 1010.1
20260506021124 22 167 1.6 16.1 0.00 0.00 0.00 57 1010.1
20260506015636 22 182 4.8 14.5 0.00 0.00 0.00 55 1010.1
20260506014135 23 229 1.6 9.7 0.00 0.00 0.00 54 1009.9
20260505152647 23 103 4.8 20.9 0.00 0.00 0.00 55 1010.6
20260505151127 23 130 0.0 14.5 0.00 0.00 0.00 56 1010.6
20260505124132 16 145 0.0 3.2 0.00 0.00 0.00 80 1010.6